GFSFLT1_sfc_thetae_000.txt.gz
Theta_e
312 312 311 310 312 317 318 319 320 322 324 325 323 322 322 322 323 323 323 323 322 323 323 325 325 331 328 332 331 330 328 326
311 311 310 311 313 314 316 320 321 321 323 323 322 323 322 321 322 323 322 321 320 321 323 324 323 325 324 325 325 325 327 327
311 310 310 311 313 317 318 320 322 324 323 323 323 322 323 322 321 323 323 321 320 325 326 324 321 322 323 323 324 324 324 325
309 311 311 312 315 318 319 320 323 324 323 322 323 322 324 324 323 324 324 322 323 324 320 321 319 320 321 322 322 322 323 323
311 313 313 313 313 318 318 321 322 323 322 322 322 323 325 324 324 324 323 322 322 321 319 319 320 320 320 321 321 322 321 323
312 313 313 312 314 317 319 324 321 321 320 321 324 325 324 324 323 324 325 325 323 320 319 319 320 319 318 319 319 319 320 320
311 313 314 312 315 316 318 319 320 320 322 322 323 324 323 325 324 323 323 324 323 320 320 320 320 318 317 318 317 319 318 319
313 315 314 313 316 318 319 320 320 322 322 321 323 322 324 325 325 323 323 323 323 321 320 320 319 317 316 317 317 318 318 318
314 317 315 314 317 318 318 319 320 321 318 319 318 319 321 323 325 326 325 322 322 320 320 319 319 317 316 317 317 317 317 318
315 315 314 314 316 318 319 320 319 320 319 322 321 321 322 323 324 325 326 324 325 322 321 319 319 317 316 317 317 316 316 318
313 314 312 313 316 318 320 320 320 319 321 322 321 320 321 322 323 324 323 324 326 323 322 320 319 317 316 316 317 317 315 318
313 314 312 313 314 317 320 320 318 320 321 320 319 318 316 319 320 321 322 323 324 323 322 321 320 318 316 318 320 318 318 317
312 313 314 314 317 317 319 318 319 321 321 320 320 317 319 319 319 319 320 323 325 324 322 320 319 318 318 320 319 319 319 319
312 315 314 314 315 316 317 316 317 321 321 321 319 318 318 317 316 317 318 319 324 321 322 319 319 318 319 319 320 320 319 321
313 314 313 313 314 315 316 317 317 319 319 320 319 320 318 316 316 317 315 316 316 317 319 320 318 320 321 321 320 323 319 322
313 314 313 313 314 315 316 316 314 315 318 319 318 320 318 316 318 318 317 316 317 318 320 321 322 323 324 322 323 324 323 321
313 314 312 310 312 314 314 316 315 314 318 319 320 321 320 319 318 318 318 318 320 320 320 320 322 323 322 324 324 324 325 325
313 313 311 310 312 312 311 316 314 316 318 317 322 325 322 321 319 318 318 318 319 320 321 321 322 322 322 324 323 322 325 326
313 312 311 310 311 309 312 315 314 315 317 318 324 324 323 322 321 318 319 319 320 321 321 322 322 322 322 322 322 323 325 326
312 311 311 310 309 310 314 314 314 313 316 316 321 324 322 322 320 320 320 320 321 321 323 323 323 322 323 324 323 324 324 324

GFSFLT1_sfc_thetae_003.txt.gz
Theta_e
313 313 314 315 318 317 321 322 324 326 328 327 326 324 323 323 324 322 321 322 321 322 321 322 323 329 327 329 330 329 328 325
312 312 312 308 311 314 318 319 320 321 322 323 323 321 321 320 321 322 320 319 319 319 319 321 322 322 323 323 324 325 325 325
312 313 311 308 310 313 316 318 318 320 321 321 320 321 322 321 320 321 321 319 318 319 322 324 325 324 323 321 322 323 324 325
310 308 308 309 312 314 316 318 320 322 321 320 321 321 321 321 321 321 323 321 319 320 323 323 319 319 319 320 321 321 321 321
311 312 310 311 314 316 318 319 321 322 320 321 320 321 322 321 322 323 323 321 320 321 320 318 318 318 318 319 319 320 319 320
313 310 310 311 315 317 317 323 321 321 319 319 320 321 321 322 322 322 324 323 322 320 318 317 319 318 317 316 317 317 317 318
309 311 310 310 315 316 317 319 319 319 318 319 321 321 321 322 322 322 323 325 325 320 318 318 318 316 316 316 315 317 316 316
309 310 310 311 314 316 317 317 318 318 319 318 319 320 321 322 322 322 323 324 324 319 317 318 318 315 314 314 314 317 316 316
310 311 311 313 314 316 317 317 318 318 317 316 317 317 319 320 322 324 324 325 322 319 317 318 317 315 314 315 315 314 315 316
310 310 311 314 315 316 317 317 318 318 316 319 318 318 319 320 321 326 327 324 322 320 319 318 317 315 314 315 315 315 314 316
310 310 311 313 315 316 317 317 317 318 318 319 318 318 318 319 319 320 321 322 323 322 320 318 317 315 314 314 315 316 314 316
311 311 309 313 314 316 318 318 317 317 321 318 316 315 314 316 317 318 319 322 323 322 321 318 317 316 314 314 317 316 316 314
310 310 311 313 314 315 317 318 316 319 319 318 318 315 316 317 317 316 317 320 324 322 320 318 317 316 315 316 316 316 316 316
310 311 311 311 313 315 316 315 317 318 319 319 318 316 316 314 315 315 315 316 322 319 320 318 317 316 318 318 317 317 317 318
310 310 310 311 312 314 314 313 316 318 319 319 317 317 317 315 314 314 313 314 317 315 317 317 316 318 319 318 318 318 317 319
310 311 311 311 312 314 315 313 315 315 318 318 316 318 315 314 315 315 314 314 314 315 318 319 320 321 321 320 320 320 319 319
310 311 310 311 312 313 314 313 312 313 317 317 317 318 315 316 315 315 314 315 317 317 318 319 321 321 321 322 322 322 322 321
311 311 309 310 312 313 313 314 313 313 317 317 319 321 318 316 316 316 315 315 316 317 318 319 320 320 322 322 321 326 326 324
311 310 310 309 310 310 311 314 312 314 316 316 322 320 320 318 317 316 316 315 317 317 319 320 320 320 321 320 322 325 325 326
310 310 308 307 308 307 310 313 312 314 315 316 320 321 320 318 317 316 316 316 317 319 320 321 321 320 320 322 321 322 325 325

GFSFLT1_sfc_thetae_006.txt.gz
Theta_e
313 316 320 322 325 329 329 330 329 330 331 329 328 326 325 326 327 326 324 323 322 324 324 324 324 328 329 330 330 331 332 330
311 313 317 315 315 322 325 326 326 326 326 326 326 323 322 322 323 324 322 321 321 321 321 322 323 325 325 326 327 328 329 329
313 314 315 311 310 314 320 321 322 322 322 322 322 322 322 322 321 322 321 320 320 321 321 322 324 326 325 326 325 326 327 327
311 309 311 309 309 313 317 319 320 320 320 320 321 321 322 322 321 322 323 322 321 321 321 323 323 323 323 323 324 325 325 326
310 312 313 312 310 314 318 318 319 320 320 320 321 321 322 321 322 323 324 323 322 322 322 322 321 322 322 322 322 323 323 324
313 313 312 309 312 315 317 321 320 320 319 319 320 321 321 321 322 323 325 325 323 321 322 321 321 321 321 320 320 321 322 322
311 311 308 312 314 315 317 320 319 320 319 318 319 321 322 322 323 322 323 325 325 322 321 321 321 320 319 319 319 320 319 320
309 309 309 313 314 316 318 319 319 319 318 318 319 320 321 322 323 324 324 325 326 323 321 320 320 319 318 317 318 319 320 320
308 309 310 313 315 316 316 317 317 317 317 316 317 318 320 321 324 326 326 326 325 322 320 319 320 318 318 318 318 318 319 320
308 307 310 313 315 316 316 317 316 318 317 318 319 319 320 321 323 325 327 326 325 322 320 320 319 318 317 317 318 317 318 320
307 307 309 313 314 316 317 317 318 318 318 319 319 318 319 319 320 322 323 324 325 324 322 321 320 318 316 317 318 319 317 318
307 307 309 312 314 316 317 317 317 318 319 317 317 317 316 317 319 320 321 323 324 323 323 321 320 318 317 317 319 320 320 318
306 307 311 314 315 316 317 317 317 318 319 318 318 317 317 318 319 319 321 321 325 323 322 320 319 319 319 318 319 319 321 320
307 309 312 311 314 315 316 316 316 318 318 319 319 317 317 316 317 317 317 319 322 322 321 321 320 320 319 319 320 320 320 321
307 309 309 310 312 314 315 315 316 317 319 320 318 318 318 317 317 317 316 317 320 319 320 320 321 321 321 321 321 321 321 322
308 309 310 311 312 314 314 314 315 317 319 319 318 319 317 316 317 317 316 316 318 319 321 322 323 324 323 323 323 322 322 324
307 309 310 311 312 314 314 313 315 316 318 318 318 319 317 317 318 317 316 317 319 320 321 322 323 324 324 324 324 325 324 324
308 308 309 310 312 313 314 314 313 314 317 318 319 319 318 318 318 317 317 318 320 320 321 322 323 324 324 324 325 327 327 325
309 308 310 310 312 312 313 314 313 314 317 317 321 320 319 318 319 318 318 318 319 320 322 322 323 323 323 325 325 326 326 326
309 309 308 309 310 311 311 313 314 314 317 318 321 321 320 318 318 318 318 318 320 321 323 323 323 323 324 325 325 326 326 325

GFSFLT1_sfc_thetae_009.txt.gz
Theta_e
323 326 329 330 334 336 339 344 347 347 345 347 346 343 342 342 339 339 338 336 335 333 332 333 333 331 332 333 333 332 335 336
322 324 328 330 332 335 340 343 344 347 344 343 341 339 338 336 336 338 337 335 334 333 331 332 332 331 332 333 333 334 335 336
323 324 327 330 330 334 339 342 343 344 342 340 339 337 335 335 335 336 335 334 334 333 332 332 332 331 332 333 333 332 333 335
321 322 323 327 329 330 336 339 343 341 338 338 337 337 336 335 334 334 335 333 333 332 331 331 332 333 332 332 331 331 330 333
320 324 325 327 327 327 333 338 339 338 337 336 334 334 335 334 334 336 334 335 334 334 333 333 335 336 334 333 332 332 331 331
322 324 326 327 325 324 330 332 335 336 335 334 333 333 334 334 334 335 335 335 336 335 333 332 334 333 333 330 329 328 328 329
324 324 325 325 324 326 328 332 332 333 334 333 334 335 333 334 334 334 335 335 335 333 333 332 334 331 329 330 329 328 327 328
323 323 323 323 325 329 331 331 332 333 332 332 332 333 333 334 334 335 336 335 335 334 332 331 332 329 328 328 328 328 328 329
317 318 320 322 325 327 330 330 332 330 328 328 329 329 332 333 334 336 336 336 335 334 333 330 327 327 329 329 328 326 326 329
316 317 319 322 324 326 329 330 330 331 330 331 333 333 334 334 336 336 336 335 335 333 329 328 327 327 329 328 327 324 327 329
317 315 318 322 323 325 328 329 331 332 333 332 332 334 333 332 333 334 335 333 332 333 331 330 330 329 328 328 327 326 324 326
317 316 317 321 323 326 329 330 331 332 333 332 333 330 329 332 333 333 334 331 332 332 332 330 331 329 328 327 328 328 328 325
316 316 318 321 324 327 329 331 331 332 333 333 332 332 332 333 332 331 332 333 332 330 331 331 331 329 330 328 328 328 331 329
316 317 320 321 325 327 328 329 330 331 332 333 335 332 330 329 329 330 330 331 331 331 330 331 331 330 330 329 329 329 329 332
315 316 318 321 323 326 327 329 328 330 331 332 332 331 330 328 329 329 329 328 327 330 331 331 332 332 331 331 330 330 330 329
316 317 319 321 324 326 327 328 328 330 331 332 332 332 330 329 329 330 329 328 328 331 331 332 332 332 332 332 331 330 331 332
316 318 320 322 324 326 327 328 328 330 331 332 331 331 328 329 329 330 328 329 329 330 330 332 332 333 333 333 332 331 331 331
316 318 320 322 325 327 328 328 328 330 330 331 330 330 329 330 329 328 329 329 330 330 330 332 333 333 333 333 330 331 331 332
316 318 320 322 325 326 326 326 326 326 328 330 331 330 329 329 329 328 328 329 329 328 329 330 332 332 332 330 330 329 329 330
317 318 320 321 322 325 324 326 325 326 329 329 331 331 330 329 328 328 328 328 329 328 330 329 330 331 329 328 326 327 327 327

GFSFLT1_sfc_thetae_012.txt.gz
Theta_e
326 328 330 330 334 338 341 346 350 348 344 346 347 345 345 344 345 343 342 340 340 338 337 335 336 335 334 334 336 336 336 335
326 329 330 330 332 336 341 344 349 351 345 345 344 342 343 341 341 343 341 338 339 339 336 335 336 334 333 335 334 335 335 336
327 331 332 332 331 336 341 344 348 350 349 346 344 341 340 339 337 340 341 338 338 338 336 335 334 335 332 333 334 334 334 334
325 329 329 332 333 336 341 344 349 350 349 348 344 343 340 338 336 339 341 339 339 337 335 334 333 336 333 332 334 333 332 332
325 327 329 332 334 337 341 345 348 350 350 347 343 340 338 335 337 342 341 341 340 339 337 336 336 338 339 336 334 333 331 331
326 328 331 335 336 336 340 341 346 350 349 345 340 337 335 335 338 339 341 342 341 339 337 337 338 338 338 335 332 330 329 329
326 327 330 333 337 337 337 341 344 348 347 342 340 340 337 337 338 338 340 341 340 339 339 339 339 337 336 333 331 331 330 328
323 328 330 332 335 337 337 340 344 346 342 339 335 335 336 338 338 338 341 340 339 338 338 337 336 336 334 331 332 332 330 328
327 328 329 330 332 334 336 338 343 340 335 331 331 330 334 336 337 341 340 340 339 337 337 336 336 333 330 333 332 330 329 331
325 326 327 330 331 334 336 338 340 338 333 333 332 333 333 336 338 340 340 339 338 336 335 336 335 329 331 332 332 328 331 333
325 325 327 330 331 333 335 338 338 337 337 336 337 338 338 334 335 336 337 338 337 337 335 335 334 333 333 333 332 328 327 331
324 326 327 329 331 333 336 337 337 337 339 336 336 329 328 333 336 338 337 336 334 334 336 335 335 336 334 332 332 333 331 329
324 325 327 329 331 333 335 336 337 337 337 337 334 333 333 335 334 334 336 336 334 332 334 335 334 334 335 333 332 331 333 331
324 326 327 328 331 332 334 336 335 337 337 337 337 336 334 332 332 331 333 336 336 334 332 334 335 334 333 332 332 332 334 334
323 324 325 327 329 331 332 333 333 335 335 336 338 337 336 334 333 332 331 329 335 333 334 335 335 336 334 334 333 333 333 334
324 325 326 327 328 330 330 332 332 333 333 336 338 338 333 333 333 333 333 333 332 334 334 335 335 334 335 335 333 332 333 334
324 325 326 327 329 330 331 331 331 332 333 337 337 337 335 333 333 336 332 335 331 334 334 335 335 335 335 336 336 334 333 334
324 325 326 328 330 331 333 332 330 332 335 336 335 336 336 335 334 332 332 333 332 332 333 335 335 336 336 337 336 335 333 334
323 324 326 328 330 331 332 330 330 331 334 335 335 335 335 334 333 332 333 333 333 331 332 334 333 334 335 333 332 331 331 332
323 324 326 327 328 329 329 328 329 331 332 333 334 335 335 334 332 332 332 332 332 330 331 332 332 332 335 330 329 328 329 330

GFSFLT1_sfc_thetae_015.txt.gz
Theta_e
326 325 326 328 331 335 339 352 355 351 346 344 349 347 346 346 346 347 348 342 342 341 340 339 339 337 337 336 336 336 335 335
325 325 327 328 332 334 340 344 354 358 346 341 344 346 345 343 345 348 344 339 343 342 338 339 341 336 336 335 333 335 336 335
325 326 327 330 333 335 337 347 355 357 359 345 347 346 343 345 341 343 342 339 343 340 342 337 338 336 337 337 337 336 335 335
325 326 327 330 335 336 338 346 356 356 354 358 353 353 346 342 340 339 342 342 342 339 339 336 337 336 336 336 336 338 335 335
323 325 328 330 334 338 347 352 356 358 358 356 351 346 343 340 339 342 342 344 343 342 338 338 343 343 341 338 337 338 333 332
325 326 330 337 338 342 346 341 353 358 357 354 349 344 341 337 337 339 343 344 343 341 338 338 344 344 341 338 336 335 331 330
328 327 329 337 341 347 343 350 346 356 357 352 350 353 340 336 337 338 340 342 341 340 338 340 342 342 340 337 335 335 330 329
326 328 331 334 339 345 347 348 354 356 352 351 343 339 338 337 337 338 340 341 339 341 338 340 341 339 337 337 334 335 332 336
326 328 331 334 337 341 344 346 354 351 345 341 337 333 336 335 337 340 341 341 342 340 338 339 338 336 336 337 333 332 332 334
323 327 334 334 336 339 340 343 350 350 345 343 338 338 334 336 337 340 341 339 340 338 338 338 338 337 335 333 334 330 331 332
323 324 333 334 335 338 339 342 347 348 347 342 340 338 338 335 333 335 339 338 340 338 337 337 336 339 335 335 334 331 327 333
323 325 332 334 335 338 340 343 343 341 346 343 346 334 330 331 336 336 337 336 336 336 336 336 335 341 334 334 333 331 332 327
322 327 331 333 336 337 340 341 340 341 342 345 335 336 331 334 333 336 338 338 335 335 335 335 336 334 336 334 333 333 335 332
325 331 332 333 335 337 338 338 338 339 338 339 340 337 334 332 333 335 338 338 337 336 333 334 336 335 334 334 335 334 335 335
327 328 329 331 333 335 336 336 336 337 337 337 337 337 337 336 333 335 334 332 336 336 335 336 335 336 336 336 335 334 335 335
327 328 329 330 332 333 334 334 334 335 335 336 337 338 334 333 335 333 335 334 335 336 335 336 336 336 336 337 332 333 335 336
327 329 330 330 332 332 333 334 334 334 334 336 336 337 335 336 336 336 333 335 333 334 334 335 335 335 335 336 337 335 333 334
327 328 329 331 332 332 335 334 333 333 334 335 335 335 336 336 335 334 335 335 333 333 334 335 335 335 335 336 336 335 334 336
326 328 329 331 332 333 334 333 331 331 334 334 336 335 335 335 334 333 335 334 335 331 331 333 333 334 335 336 334 332 332 333
326 327 329 329 330 332 332 331 330 331 332 333 334 334 335 335 334 332 334 333 333 330 331 330 331 333 335 332 330 330 331 330

GFSFLT1_sfc_thetae_021.txt.gz
Theta_e
318 317 316 316 317 323 343 344 344 343 342 343 345 344 344 345 341 339 339 338 335 337 332 339 335 342 332 335 332 330 329 328
317 316 317 317 316 319 341 345 345 343 341 341 343 341 342 341 341 337 339 337 335 333 331 332 331 330 329 328 328 329 329 331
318 319 319 319 317 319 336 345 345 343 339 341 341 340 340 340 339 339 338 337 332 331 329 331 331 331 329 329 330 330 331 330
317 318 318 317 320 320 331 340 344 343 340 340 341 341 340 339 339 340 339 336 331 333 333 330 329 328 328 328 327 327 327 327
317 317 317 320 321 322 332 338 340 341 340 337 341 342 341 339 338 340 339 335 332 334 331 330 330 330 329 329 328 328 327 327
318 318 319 321 320 322 329 341 341 340 338 340 341 342 340 339 336 339 338 335 335 334 330 329 330 330 329 328 326 325 326 325
317 320 318 318 321 324 332 339 342 342 341 339 342 340 336 334 333 333 337 337 338 333 331 329 330 330 329 328 327 325 323 324
316 320 321 321 322 327 331 336 342 344 344 341 341 338 334 334 332 332 334 336 337 333 331 329 330 329 327 326 325 324 324 323
316 320 320 319 330 332 336 340 343 345 343 340 336 333 332 333 332 334 335 335 335 332 330 329 329 327 326 326 324 323 322 323
316 316 317 323 326 333 337 343 344 343 342 338 336 331 332 332 331 331 332 332 331 330 328 327 327 326 325 324 322 320 320 321
312 313 314 327 329 334 337 342 341 341 340 339 334 330 329 327 328 330 331 332 333 331 329 328 326 325 323 322 322 320 317 318
314 313 322 327 330 333 335 341 340 341 338 334 329 326 324 326 326 329 331 331 331 331 329 328 326 325 323 323 324 321 318 316
313 314 327 329 330 332 337 339 337 336 333 331 327 324 326 327 328 328 329 327 328 330 328 326 325 324 324 323 323 322 321 317
315 327 329 329 333 334 337 335 333 333 331 330 328 326 326 324 326 326 326 325 327 327 328 325 325 325 324 324 324 323 321 321
324 325 327 329 331 333 333 331 328 331 332 328 330 325 326 325 324 324 324 324 324 325 325 323 324 326 326 325 323 323 324 322
323 325 327 329 331 331 330 328 328 329 328 329 329 327 325 326 325 325 325 324 325 324 325 326 327 328 328 326 324 324 324 322
323 323 326 329 329 328 328 328 327 328 327 329 328 327 327 326 326 325 324 325 325 326 325 326 328 328 328 326 324 322 324 322
322 323 326 328 328 328 328 327 327 327 329 328 327 328 328 327 326 324 325 324 325 325 325 327 328 327 328 325 323 326 327 325
321 324 326 327 327 328 327 326 327 326 328 326 327 328 328 325 325 327 324 323 327 325 326 327 328 326 326 324 323 325 326 326
323 325 325 325 326 326 325 325 326 325 328 327 328 328 325 325 324 325 324 321 322 324 326 330 328 328 325 324 325 327 326 323

GFSFLT1_sfc_thetae_024.txt.gz
Theta_e
315 316 316 315 319 337 340 340 340 338 336 338 343 341 341 341 340 339 339 338 334 335 332 337 342 346 337 340 336 333 328 327
315 315 315 315 315 333 340 341 340 339 337 337 340 339 340 340 340 338 337 333 330 330 330 330 332 332 330 328 327 327 327 328
314 316 316 316 314 318 338 340 340 340 337 338 339 338 339 340 339 337 337 333 331 331 330 328 329 328 328 326 326 327 327 327
314 315 315 315 316 315 333 339 340 340 338 337 339 339 338 338 338 336 336 335 333 330 329 327 329 329 328 327 327 326 326 327
314 315 315 316 315 318 329 339 340 340 339 336 339 339 338 337 336 336 337 336 332 331 329 330 328 327 326 327 326 325 324 325
317 315 314 314 316 316 321 337 340 340 339 336 338 339 338 337 337 337 338 337 333 331 329 328 329 328 327 326 325 325 323 323
313 316 316 318 317 316 318 332 335 338 338 336 338 338 338 336 336 338 337 336 334 332 329 328 328 327 326 325 324 323 321 321
315 316 317 316 315 318 320 333 334 335 335 336 335 334 332 332 334 335 336 335 335 330 329 328 328 327 325 323 324 322 322 321
314 313 316 318 317 318 324 334 335 338 336 337 335 330 330 329 330 333 333 333 333 330 329 328 327 326 325 323 322 322 321 323
313 314 315 316 319 325 327 334 338 339 339 337 333 331 328 329 330 333 333 332 332 330 327 326 325 324 323 321 321 317 318 320
311 313 312 315 323 328 333 337 338 338 337 334 329 327 326 325 327 328 329 331 330 329 326 325 324 323 321 320 319 318 315 316
311 312 311 320 325 332 337 337 338 338 337 332 330 324 323 323 325 326 327 330 330 329 328 326 324 322 321 321 322 318 316 313
309 309 315 324 330 333 338 337 337 335 333 330 328 324 323 323 325 326 325 326 328 329 326 325 323 322 321 322 321 319 318 315
308 318 326 327 331 336 336 335 332 331 329 327 324 324 323 323 323 323 322 322 324 326 326 323 323 322 322 322 322 321 319 318
320 322 325 328 332 333 332 331 328 328 326 325 324 324 323 323 323 322 321 321 322 323 323 322 322 323 323 323 322 320 320 320
320 323 326 329 331 330 329 328 327 326 326 324 324 324 324 323 322 322 322 322 322 323 323 322 323 325 326 325 322 322 322 321
321 325 327 328 327 328 326 326 325 325 326 325 324 325 324 323 322 322 322 322 323 322 324 324 325 327 327 325 323 322 322 320
322 325 326 326 326 326 325 325 324 325 325 325 325 325 325 324 323 323 323 321 323 324 323 325 326 325 325 324 322 324 323 323
322 324 325 325 327 325 324 324 324 325 324 324 324 324 324 323 322 322 322 321 322 323 324 325 325 324 323 322 324 325 325 324
323 324 324 325 325 324 323 323 324 324 324 323 323 323 322 322 322 322 321 320 322 323 324 327 326 326 324 323 325 326 322 323

GFSFLT1_sfc_thetae_027.txt.gz
Theta_e
314 314 313 315 325 334 336 337 335 335 336 336 340 340 339 340 338 336 335 336 335 336 333 335 338 345 340 341 339 335 331 327
314 314 316 314 315 329 336 338 337 334 334 334 335 337 337 338 338 336 336 333 329 329 329 328 332 335 335 331 330 329 327 327
313 314 314 314 312 319 332 337 337 336 332 332 333 336 335 336 337 337 336 333 330 328 327 327 329 329 330 327 326 325 325 326
311 311 312 312 314 313 327 336 337 337 335 332 332 334 334 335 337 336 335 332 330 328 328 328 327 327 327 326 325 324 324 325
311 313 313 314 315 314 324 335 337 337 336 335 334 334 334 335 336 336 335 332 330 330 329 326 327 327 326 325 325 324 323 323
312 313 313 314 313 313 315 330 336 336 336 336 336 336 335 334 335 334 334 334 332 330 331 329 328 325 324 323 323 322 324 323
312 314 315 315 315 314 313 330 335 336 336 335 334 335 335 335 334 334 334 334 333 331 329 328 327 325 324 323 322 321 319 320
313 315 315 314 313 315 313 328 333 335 333 330 331 334 333 334 334 335 335 335 334 331 329 327 326 325 324 322 322 321 321 320
312 313 314 313 314 313 315 322 327 333 332 331 331 332 331 331 334 335 334 334 333 330 328 326 325 324 324 322 320 320 318 321
310 311 312 312 314 314 314 321 329 332 334 334 330 331 327 329 331 333 334 334 332 329 327 325 325 323 322 321 324 316 316 320
308 310 311 311 312 316 319 324 330 332 330 329 327 327 326 325 326 327 330 332 330 329 327 325 324 323 321 319 318 316 314 314
307 309 309 309 312 322 328 331 332 333 332 328 328 326 325 322 326 326 326 329 329 328 326 324 323 321 319 319 320 317 315 312
306 307 307 308 318 328 332 334 333 332 329 330 326 323 322 324 326 324 324 325 327 327 326 324 322 320 320 319 319 317 316 315
305 309 312 320 330 333 333 333 330 330 328 326 326 323 323 323 322 322 321 321 323 325 325 323 322 320 320 320 320 319 318 317
309 314 320 326 332 331 331 331 326 326 325 324 325 323 323 322 323 322 320 319 320 321 322 321 320 320 321 320 320 320 319 317
317 320 323 328 329 327 330 328 323 324 323 322 322 322 322 321 322 322 320 320 321 322 322 321 321 322 322 321 321 320 320 319
319 323 325 327 325 324 327 324 323 323 322 322 322 322 322 321 321 321 321 320 322 322 321 321 322 323 324 323 322 321 322 321
321 324 324 325 324 323 324 324 323 322 322 323 323 322 322 321 321 321 320 320 320 321 321 322 322 324 323 323 321 322 322 322
322 323 323 324 323 323 322 323 323 322 323 323 322 322 322 321 321 321 320 319 321 321 322 323 324 323 322 320 322 324 324 323
321 322 323 323 322 322 322 323 323 322 323 322 321 321 320 319 320 320 320 319 321 321 322 324 325 324 322 321 322 325 323 322

GFSFLT1_sfc_thetae_030.txt.gz
Theta_e
313 314 318 319 326 332 331 331 335 336 337 337 339 340 339 340 339 339 339 338 339 340 337 339 339 344 341 345 344 341 336 333
312 312 314 313 314 325 333 333 333 333 335 334 335 338 337 338 338 337 336 336 334 335 334 333 334 337 339 339 337 336 334 332
312 313 312 313 312 314 323 333 334 333 333 333 332 334 335 335 337 336 336 335 332 332 332 330 330 333 335 335 333 331 330 329
311 310 310 311 312 313 315 332 335 335 332 332 332 332 333 333 335 336 336 334 331 331 330 329 328 331 332 332 330 329 328 328
311 313 311 312 313 313 314 323 334 335 334 332 331 331 332 332 333 335 336 333 331 330 329 328 329 330 330 329 329 328 327 327
311 311 312 313 313 313 313 325 333 335 335 335 332 331 332 332 333 335 336 333 331 330 328 329 330 329 329 328 328 327 326 326
311 312 313 313 313 313 312 316 328 333 335 335 334 333 333 333 334 335 335 334 333 330 329 330 330 329 327 327 326 327 325 325
310 311 312 312 313 313 313 313 322 331 333 331 330 331 333 333 333 333 334 334 333 331 331 330 329 328 327 326 326 325 325 325
309 311 312 312 312 313 313 314 325 332 330 328 328 330 331 331 333 334 334 334 333 332 331 330 328 328 327 326 325 325 323 325
308 309 310 310 312 312 312 314 324 331 333 330 330 330 331 331 333 334 335 334 334 332 330 328 328 326 326 325 326 321 322 323
307 309 308 309 309 312 314 314 324 328 330 328 327 327 327 326 329 330 333 334 334 332 330 329 327 327 326 325 324 322 319 320
306 306 307 309 309 311 315 320 327 330 330 327 328 325 324 325 328 329 330 332 331 329 329 328 327 327 325 324 323 321 320 317
303 305 306 307 307 312 323 327 330 330 329 330 328 324 323 327 327 327 327 328 329 329 328 328 327 325 324 323 323 321 320 319
302 304 309 314 325 329 331 329 327 328 329 326 326 324 325 325 324 325 325 324 326 328 329 327 326 324 323 323 323 323 321 321
301 303 317 324 329 330 331 329 325 325 326 325 325 325 325 325 325 323 323 322 322 324 326 324 323 324 324 324 323 323 322 321
305 316 322 328 328 330 328 326 324 324 325 324 324 325 325 325 324 324 323 323 324 324 325 325 324 324 324 324 324 324 324 323
314 322 326 328 328 326 325 324 322 323 323 323 323 323 323 323 322 323 322 323 324 324 325 324 323 325 325 325 324 324 324 324
320 322 325 323 323 323 323 323 322 322 323 323 323 323 323 323 323 322 323 323 324 323 323 324 325 326 326 326 325 325 324 324
321 322 324 321 322 322 322 322 322 322 323 323 323 322 323 323 323 322 323 322 322 323 324 325 326 326 325 324 325 325 324 323
321 322 323 321 321 322 321 322 322 322 323 323 322 322 322 321 322 322 321 321 323 324 325 326 327 326 325 324 323 325 324 322

GFSFLT1_sfc_thetae_033.txt.gz
Theta_e
321 322 323 325 333 341 341 343 346 346 345 345 346 347 347 347 346 347 348 344 343 341 340 342 342 345 343 346 346 345 343 341
322 322 323 325 328 333 341 344 343 346 345 344 344 344 345 344 344 347 346 342 342 341 338 339 342 339 343 345 345 346 345 343
322 324 325 326 327 331 333 341 344 345 346 344 344 344 343 343 342 345 345 341 342 341 339 338 339 339 340 343 344 344 344 342
321 323 324 327 329 329 332 333 346 345 344 346 345 344 344 342 341 344 346 343 343 339 339 337 337 337 337 341 343 342 342 340
320 323 327 327 328 332 335 333 341 346 347 346 344 342 341 341 340 343 343 344 342 341 337 338 338 338 341 341 341 341 339 339
321 323 326 328 329 331 334 328 335 347 347 345 343 342 340 340 340 341 342 343 342 340 337 337 339 339 337 337 339 336 337 337
324 323 325 328 332 334 333 333 331 343 346 345 345 344 340 340 340 340 341 341 340 339 338 339 339 336 336 338 338 338 337 337
320 323 325 327 332 334 334 332 333 339 341 344 342 341 340 341 340 341 341 341 340 341 339 337 337 335 336 337 339 338 337 338
319 322 324 327 332 333 337 333 334 333 337 337 338 337 340 340 341 342 342 342 342 341 338 339 338 335 338 340 340 337 335 334
317 320 324 326 329 332 335 332 332 337 338 340 341 341 339 339 340 343 344 342 342 341 340 338 339 336 341 339 338 331 330 330
316 318 322 326 327 330 331 332 332 339 342 341 341 340 336 336 338 337 340 341 342 341 341 339 339 340 338 340 336 332 331 326
314 317 320 324 326 326 326 330 332 337 343 341 340 339 334 337 336 337 337 342 342 341 340 340 341 338 334 336 337 332 332 327
311 313 317 321 322 322 326 332 336 338 341 342 340 340 340 341 340 339 340 343 342 340 341 342 340 334 335 338 336 333 331 329
311 313 316 316 323 333 335 336 339 339 340 342 342 341 339 338 339 338 339 340 340 341 341 341 340 336 337 335 335 334 332 330
313 314 314 321 331 334 333 337 337 340 340 340 341 341 341 341 340 337 336 336 337 338 340 339 337 337 336 336 335 334 333 330
312 312 322 329 333 333 334 338 338 339 339 339 339 341 340 340 340 339 336 336 337 340 339 337 336 336 335 335 333 333 333 332
313 322 330 332 332 333 339 338 338 338 337 337 338 339 339 337 339 339 337 338 337 337 337 336 336 335 335 335 333 334 334 329
322 326 329 330 333 338 339 338 337 337 337 337 336 337 338 337 338 336 337 338 337 336 335 335 334 334 335 337 335 335 334 327
323 325 329 331 336 336 336 335 335 335 335 335 335 335 336 336 336 336 336 336 336 334 333 333 334 335 336 335 335 334 328 326
323 326 329 332 334 334 334 335 334 334 334 334 334 335 335 335 334 335 335 334 333 333 333 333 333 333 334 333 332 329 326 324

GFSFLT1_sfc_thetae_036.txt.gz
Theta_e
326 327 328 330 332 335 345 351 354 351 348 345 346 347 345 345 345 348 347 341 343 339 339 341 343 345 344 345 347 345 345 343
327 328 329 330 331 334 343 350 353 354 349 347 347 346 347 345 345 351 347 344 346 343 338 340 341 340 342 345 344 346 345 345
327 328 329 331 331 335 337 341 352 353 355 350 351 349 347 348 346 347 346 342 346 342 341 338 340 340 340 343 343 345 343 345
325 327 328 330 331 334 337 338 347 353 352 355 354 354 351 349 347 346 349 345 347 341 342 338 338 339 339 340 342 342 343 343
325 327 329 331 332 335 338 341 344 351 354 353 353 350 350 348 347 351 348 350 350 347 339 339 337 341 343 341 344 344 342 342
326 327 330 333 335 335 338 336 337 346 355 351 349 348 347 347 347 348 348 350 348 346 339 338 338 340 338 338 340 339 339 340
327 328 330 332 334 338 338 340 339 346 351 348 351 354 348 346 346 347 349 348 347 345 341 338 347 337 338 336 336 338 338 343
325 327 328 330 333 338 342 342 346 345 343 346 344 346 347 346 346 347 348 348 347 346 343 342 341 337 337 335 338 340 340 340
323 324 326 327 331 339 343 345 351 342 337 339 342 341 344 345 346 349 348 348 347 347 343 343 341 337 338 341 340 342 341 341
320 323 324 327 332 339 343 346 347 344 339 344 344 345 345 346 346 346 348 348 347 345 346 343 342 336 338 340 342 342 340 339
318 320 323 325 329 337 337 342 343 345 346 346 347 348 347 344 343 343 344 346 345 344 344 344 342 339 336 346 345 341 334 336
317 319 321 324 326 330 334 339 340 342 349 350 351 343 340 342 344 341 342 344 343 343 346 344 343 339 345 342 342 341 340 332
316 318 320 322 325 327 334 336 337 342 347 350 346 346 344 346 344 338 342 344 344 346 347 346 344 344 346 343 341 341 338 332
316 318 320 321 324 325 329 337 341 344 347 348 349 348 347 344 345 340 342 343 345 346 346 347 348 346 344 341 342 340 336 334
317 318 319 321 324 328 336 341 342 345 346 347 348 350 350 349 347 345 345 342 343 346 348 347 344 345 343 342 341 338 336 333
318 322 321 319 324 335 339 340 342 344 346 347 350 351 348 347 349 346 344 342 343 347 346 345 344 343 341 341 336 335 337 335
324 325 323 329 336 339 342 343 344 345 347 348 349 350 350 348 348 347 343 345 343 345 345 343 342 341 340 339 334 336 336 337
325 327 330 336 340 344 345 346 345 346 347 347 347 348 348 347 346 342 343 344 343 344 343 342 340 338 338 339 336 338 337 335
328 331 333 336 343 344 345 345 345 345 345 345 345 345 344 344 342 343 344 344 343 340 339 337 336 336 338 339 339 337 334 332
325 328 332 339 341 342 342 343 343 343 344 343 343 341 341 342 342 342 343 341 339 335 334 334 335 336 337 336 334 334 328 325

GFSFLT1_sfc_thetae_042.txt.gz
Theta_e
331 329 330 332 336 339 344 354 354 349 346 348 348 345 345 345 344 342 343 340 338 338 336 337 343 345 342 344 344 343 340 340
331 330 331 333 335 334 344 356 357 355 349 350 351 348 347 345 344 342 341 339 337 337 336 337 337 338 337 338 339 340 340 341
333 335 336 337 338 339 343 356 357 361 363 357 352 349 349 347 346 344 341 341 338 337 339 339 337 338 337 336 339 340 341 341
330 333 335 345 342 354 346 355 361 361 359 361 365 357 353 351 347 347 345 342 342 340 338 339 341 338 339 337 338 341 342 343
326 331 335 339 338 344 347 351 363 361 360 360 358 358 353 354 351 354 347 346 345 341 341 339 338 342 339 340 338 342 342 344
326 331 339 344 343 344 351 339 356 362 360 358 358 353 354 353 352 355 354 349 346 348 342 341 342 340 343 339 341 339 340 339
326 328 332 338 340 343 346 348 348 359 361 357 358 357 356 353 354 351 357 352 349 346 346 345 345 341 338 340 339 338 338 339
327 332 333 337 346 351 351 351 354 360 355 354 349 349 350 351 350 353 357 353 351 349 349 344 348 341 340 340 337 339 338 337
327 328 334 332 344 349 349 349 351 355 352 345 341 341 342 347 350 354 357 354 351 350 346 349 346 342 340 342 341 339 335 335
322 326 334 341 344 345 346 349 352 352 347 344 347 345 340 345 351 354 357 355 352 351 348 346 345 344 342 344 340 333 333 338
321 326 332 340 340 343 345 346 347 349 345 345 347 347 353 354 351 352 354 353 352 349 348 346 346 343 340 342 339 336 330 339
317 322 327 334 337 341 347 346 345 345 349 346 344 340 339 347 351 351 351 352 351 349 347 347 349 342 343 339 339 335 337 333
316 317 321 327 330 331 337 344 346 345 346 347 342 345 346 354 353 353 349 352 349 347 346 346 345 343 343 338 339 340 340 335
318 320 320 320 324 328 335 337 338 345 347 351 349 348 347 346 349 346 344 345 343 344 344 344 344 344 345 342 343 340 337 335
318 319 319 320 321 322 325 336 338 346 344 349 346 351 348 355 346 343 341 340 340 341 342 343 344 345 346 344 341 339 338 336
318 319 322 320 323 326 330 334 339 343 342 343 348 348 350 349 345 342 341 339 340 345 344 346 346 345 343 343 340 340 339 336
318 321 321 322 325 331 332 334 336 339 343 346 349 351 352 348 347 345 344 344 344 345 347 346 344 343 341 342 340 337 337 336
320 324 328 332 336 333 335 338 342 347 348 350 350 353 354 351 350 347 346 347 346 347 345 344 342 341 341 340 337 337 335 335
320 327 331 332 339 342 345 344 346 346 346 348 350 351 351 351 348 346 346 347 345 344 342 339 337 338 340 338 336 336 333 333
326 329 335 335 335 340 344 345 342 344 348 349 349 347 347 345 343 342 344 343 343 341 340 338 338 336 336 336 334 334 332 331

GFSFLT1_sfc_thetae_045.txt.gz
Theta_e
326 325 324 328 341 348 348 345 343 338 338 341 345 344 343 342 339 338 338 338 334 338 332 338 336 344 339 343 343 343 340 338
324 324 324 329 335 345 348 345 341 338 337 342 342 340 340 340 340 338 338 335 333 329 331 331 332 336 335 334 336 338 336 336
327 329 329 328 332 339 341 347 343 341 339 343 342 340 340 338 339 339 338 336 332 331 329 330 330 334 334 332 333 335 335 336
323 327 329 329 329 332 333 333 347 345 344 344 343 343 342 341 341 340 338 337 333 331 330 331 331 333 334 332 331 333 335 336
320 325 327 329 329 330 334 341 346 348 347 347 350 346 345 343 342 341 339 336 336 333 332 332 332 333 331 333 330 332 335 337
320 321 325 329 329 328 337 348 351 350 348 347 347 348 347 345 345 344 342 339 337 336 335 332 333 332 332 332 331 330 332 336
317 320 322 326 328 329 332 340 351 351 351 350 348 346 344 344 344 345 346 342 339 340 336 336 333 333 333 332 332 331 329 330
316 319 322 322 325 325 330 332 346 350 352 348 346 345 345 345 344 344 346 345 343 338 340 337 336 335 331 331 329 330 328 331
317 318 319 325 328 333 332 332 336 344 341 340 338 338 336 338 340 341 344 348 344 342 340 339 339 335 332 331 329 327 328 328
315 316 318 318 324 332 332 331 333 339 339 335 332 331 332 333 337 341 343 347 347 343 341 340 337 336 332 332 331 327 327 326
313 315 317 319 326 332 332 332 333 334 334 333 332 332 331 335 336 338 342 346 346 345 341 340 338 336 334 332 330 326 323 324
311 312 315 320 326 330 330 332 333 335 335 330 331 330 329 328 336 340 342 345 345 344 342 340 340 338 334 333 332 328 327 324
309 309 310 314 324 324 330 333 332 331 334 333 332 329 331 333 338 340 340 341 343 343 341 339 339 340 338 334 331 329 329 328
308 310 310 311 313 319 319 328 331 330 332 335 332 332 333 335 339 338 337 337 339 342 343 342 340 339 338 334 333 331 331 330
308 309 310 312 311 312 315 322 327 333 332 336 334 333 334 336 339 337 336 334 334 336 339 339 340 340 338 335 334 332 330 329
306 308 311 312 313 312 312 313 322 330 333 339 338 336 342 340 340 338 336 335 334 337 339 339 340 340 337 337 335 331 330 329
306 308 310 312 313 314 314 315 320 334 334 336 338 335 341 339 337 337 336 335 337 339 340 337 339 339 337 335 333 330 329 327
307 307 309 310 311 315 317 323 330 332 333 334 338 340 343 339 338 336 336 335 337 338 338 339 337 336 334 331 329 328 328 327
310 310 319 321 320 321 320 327 332 335 338 339 340 342 343 341 340 339 338 338 339 339 339 336 335 335 334 328 327 329 326 325
309 312 324 329 329 331 330 335 337 339 340 340 341 342 344 342 340 341 341 338 339 338 336 335 334 332 332 329 328 329 325 324

GFSFLT1_sfc_thetae_048.txt.gz
Theta_e
327 331 334 338 340 341 341 338 340 340 340 343 344 342 342 342 341 340 338 337 336 339 334 338 336 344 337 342 342 342 338 337
320 323 326 335 341 342 341 339 336 335 335 340 340 340 340 340 339 337 337 334 331 331 331 332 331 333 333 333 336 337 337 337
328 329 329 332 341 345 344 341 338 335 333 337 339 337 338 338 338 337 337 334 331 330 330 328 329 331 332 331 333 335 335 335
324 327 327 331 336 340 342 341 344 342 335 337 338 337 336 334 335 336 336 335 331 330 327 328 328 331 332 332 331 331 332 333
323 327 329 328 331 332 336 337 337 339 340 339 338 338 338 336 336 337 336 335 333 329 328 327 329 329 330 331 328 328 329 332
315 324 326 328 329 329 328 335 334 342 342 342 341 340 341 340 339 339 338 336 334 331 329 327 329 329 330 330 328 326 329 330
314 320 325 325 324 327 327 330 337 344 345 345 346 345 343 343 342 340 339 338 335 334 331 331 329 330 329 329 328 327 325 327
314 315 318 323 326 324 327 326 331 344 346 345 344 342 345 341 343 342 342 340 338 335 334 332 330 330 330 328 328 329 325 328
312 315 315 317 321 323 321 327 333 342 342 342 342 341 341 339 341 342 343 344 340 335 336 333 333 330 330 330 327 327 326 328
309 312 314 313 316 322 324 326 336 344 344 344 341 342 336 341 342 341 341 344 343 340 336 336 335 333 329 329 328 324 325 325
307 311 312 312 312 317 327 327 335 343 343 341 330 331 329 329 330 331 335 342 344 341 338 338 336 336 331 329 328 326 323 323
304 307 308 312 317 321 326 329 329 338 337 334 332 328 325 325 326 333 334 342 343 342 340 339 338 335 333 330 330 326 326 323
301 304 308 310 315 324 326 326 327 329 331 331 331 323 324 324 330 331 333 338 342 343 340 336 337 335 333 332 331 329 329 327
302 304 308 309 311 319 325 326 327 328 327 326 324 324 325 327 330 332 333 335 338 340 340 338 338 338 334 333 333 331 329 330
304 305 303 306 306 311 318 326 327 328 328 328 329 327 327 328 332 333 333 332 333 337 338 338 340 337 336 335 334 332 328 327
304 306 308 305 307 308 312 316 324 326 326 325 330 330 330 332 336 337 338 337 336 337 336 336 339 340 338 335 332 331 331 330
304 307 309 313 308 309 310 312 317 320 326 327 328 331 332 336 336 337 335 334 336 335 336 335 339 339 336 332 332 332 331 329
303 306 308 312 317 311 310 311 313 318 325 329 333 332 338 337 337 334 334 333 335 335 333 334 335 336 333 331 331 331 328 324
303 305 307 310 313 319 311 310 313 324 328 330 334 335 336 336 335 335 334 333 334 335 336 335 336 335 334 331 327 327 325 323
303 304 305 310 312 317 321 316 323 328 331 333 335 338 336 335 334 335 335 335 337 337 337 337 336 334 331 327 325 327 324 322